| time (UTC) | temp F | wind direction | speed MPH | gust MPH | rain 1hr in | rain 24hr in | rain mn in | humidity % | barometer mb |
| 20260503001827 | 63 | 176 | 2.0 | 3.0 | 0.00 | 0.00 | 0.00 | 26 | 1012.2 |
| 20260503001323 | 63 | 200 | 3.0 | 3.0 | 0.00 | 0.00 | 0.00 | 26 | 1012.2 |
| 20260503000821 | 63 | 169 | 2.0 | 2.0 | 0.00 | 0.00 | 0.00 | 26 | 1012.2 |
| 20260503000319 | 63 | 164 | 5.0 | 7.0 | 0.00 | 0.00 | 0.00 | 25 | 1012.5 |
| 20260502235815 | 63 | 174 | 3.0 | 3.0 | 0.00 | 0.00 | 0.00 | 26 | 1012.2 |
| 20260502235312 | 63 | 190 | 4.0 | 4.0 | 0.00 | 0.00 | 0.00 | 25 | 1012.2 |
| 20260502234809 | 63 | 167 | 2.0 | 3.0 | 0.00 | 0.00 | 0.00 | 24 | 1012.2 |
| 20260502234306 | 63 | 188 | 3.0 | 3.0 | 0.00 | 0.00 | 0.00 | 25 | 1012.2 |
| 20260502233802 | 63 | 170 | 2.0 | 2.0 | 0.00 | 0.00 | 0.00 | 24 | 1012.2 |
| 20260502233259 | 64 | 166 | 2.0 | 2.0 | 0.00 | 0.00 | 0.00 | 25 | 1012.5 |
| 20260502232755 | 64 | 186 | 4.0 | 4.0 | 0.00 | 0.00 | 0.00 | 25 | 1012.5 |
| 20260502232252 | 64 | 144 | 4.0 | 4.0 | 0.00 | 0.00 | 0.00 | 24 | 1012.5 |
| 20260502231748 | 64 | 165 | 4.0 | 6.0 | 0.00 | 0.00 | 0.00 | 22 | 1012.5 |
| 20260502231246 | 65 | 181 | 4.0 | 4.0 | 0.00 | 0.00 | 0.00 | 25 | 1012.5 |
| 20260502230745 | 65 | 169 | 4.0 | 4.0 | 0.00 | 0.00 | 0.00 | 24 | 1012.5 |
| 20260502230242 | 65 | 178 | 3.0 | 4.0 | 0.00 | 0.00 | 0.00 | 23 | 1012.5 |
| 20260502225738 | 66 | 169 | 3.0 | 4.0 | 0.00 | 0.00 | 0.00 | 22 | 1012.5 |
| 20260502225236 | 66 | 148 | 4.0 | 4.0 | 0.00 | 0.00 | 0.00 | 22 | 1012.5 |
| 20260502224732 | 66 | 160 | 2.0 | 3.0 | 0.00 | 0.00 | 0.00 | 23 | 1012.5 |
| 20260502224229 | 66 | 182 | 4.0 | 4.0 | 0.00 | 0.00 | 0.00 | 23 | 1012.8 |
| 20260502223726 | 66 | 187 | 4.0 | 6.0 | 0.00 | 0.00 | 0.00 | 21 | 1012.5 |
| 20260502223224 | 66 | 183 | 2.0 | 4.0 | 0.00 | 0.00 | 0.00 | 21 | 1012.8 |
| 20260502222721 | 65 | 203 | 2.0 | 2.0 | 0.00 | 0.00 | 0.00 | 24 | 1012.8 |
| 20260502222218 | 65 | 150 | 5.0 | 8.0 | 0.00 | 0.00 | 0.00 | 22 | 1012.8 |
| 20260502221714 | 66 | 169 | 3.0 | 4.0 | 0.00 | 0.00 | 0.00 | 22 | 1012.8 |
| 20260502221211 | 66 | 195 | 6.0 | 8.0 | 0.00 | 0.00 | 0.00 | 22 | 1012.8 |
| 20260502220707 | 66 | 179 | 2.0 | 3.0 | 0.00 | 0.00 | 0.00 | 22 | 1013.2 |
| 20260502220203 | 66 | 87 | 1.0 | 3.0 | 0.00 | 0.00 | 0.00 | 23 | 1013.2 |
| 20260502215701 | 66 | 103 | 5.0 | 7.0 | 0.00 | 0.00 | 0.00 | 21 | 1013.2 |
| 20260502215157 | 66 | 155 | 4.0 | 7.0 | 0.00 | 0.00 | 0.00 | 21 | 1013.6 |
| 20260502214655 | 66 | 164 | 4.0 | 6.0 | 0.00 | 0.00 | 0.00 | 22 | 1013.6 |
| 20260502214152 | 66 | 172 | 3.0 | 4.0 | 0.00 | 0.00 | 0.00 | 21 | 1013.2 |
| 20260502213649 | 66 | 169 | 2.0 | 3.0 | 0.00 | 0.00 | 0.00 | 22 | 1013.6 |
| 20260502213146 | 66 | 191 | 5.0 | 8.0 | 0.00 | 0.00 | 0.00 | 21 | 1013.6 |
| 20260502212645 | 66 | 160 | 3.0 | 4.0 | 0.00 | 0.00 | 0.00 | 20 | 1013.6 |
| 20260502212143 | 66 | 154 | 6.0 | 9.0 | 0.00 | 0.00 | 0.00 | 20 | 1013.6 |
| 20260502211638 | 66 | 199 | 5.0 | 6.0 | 0.00 | 0.00 | 0.00 | 21 | 1013.9 |
| 20260502211135 | 66 | 168 | 8.0 | 11.0 | 0.00 | 0.00 | 0.00 | 19 | 1013.9 |
| 20260502210633 | 66 | 176 | 4.0 | 6.0 | 0.00 | 0.00 | 0.00 | 20 | 1013.9 |
| 20260502210130 | 66 | 159 | 6.0 | 9.0 | 0.00 | 0.00 | 0.00 | 19 | 1013.9 |
| 20260502205626 | 66 | 91 | 2.0 | 3.0 | 0.00 | 0.00 | 0.00 | 21 | 1014.3 |
| 20260502205123 | 66 | 171 | 10.0 | 11.0 | 0.00 | 0.00 | 0.00 | 18 | 1013.9 |
| 20260502204620 | 66 | 195 | 3.0 | 3.0 | 0.00 | 0.00 | 0.00 | 20 | 1013.9 |
| 20260502204118 | 66 | 171 | 2.0 | 4.0 | 0.00 | 0.00 | 0.00 | 21 | 1014.6 |
| 20260502203615 | 66 | 174 | 4.0 | 4.0 | 0.00 | 0.00 | 0.00 | 21 | 1014.3 |
| 20260502203112 | 66 | 90 | 2.0 | 3.0 | 0.00 | 0.00 | 0.00 | 21 | 1014.6 |
| 20260502202607 | 66 | 185 | 5.0 | 6.0 | 0.00 | 0.00 | 0.00 | 20 | 1014.6 |
| 20260502202105 | 66 | 203 | 6.0 | 7.0 | 0.00 | 0.00 | 0.00 | 23 | 1015.0 |
| 20260502201556 | 66 | 235 | 3.0 | 3.0 | 0.00 | 0.00 | 0.00 | 19 | 1015.0 |
| 20260502201053 | 66 | 158 | 5.0 | 8.0 | 0.00 | 0.00 | 0.00 | 20 | 1015.0 |
| 20260502200548 | 66 | 232 | 4.0 | 6.0 | 0.00 | 0.00 | 0.00 | 19 | 1015.0 |
| 20260502200047 | 65 | 120 | 2.0 | 2.0 | 0.00 | 0.00 | 0.00 | 20 | 1015.0 |
| 20260502195544 | 65 | 174 | 4.0 | 7.0 | 0.00 | 0.00 | 0.00 | 20 | 1015.3 |
| 20260502195040 | 65 | 188 | 2.0 | 2.0 | 0.00 | 0.00 | 0.00 | 24 | 1015.3 |
| 20260502194536 | 65 | 191 | 2.0 | 3.0 | 0.00 | 0.00 | 0.00 | 21 | 1015.6 |
| 20260502194032 | 65 | 218 | 4.0 | 6.0 | 0.00 | 0.00 | 0.00 | 20 | 1015.3 |
| 20260502193530 | 65 | 226 | 3.0 | 6.0 | 0.00 | 0.00 | 0.00 | 21 | 1015.3 |
| 20260502193027 | 65 | 171 | 3.0 | 4.0 | 0.00 | 0.00 | 0.00 | 20 | 1015.6 |
| 20260502192522 | 65 | 152 | 4.0 | 6.0 | 0.00 | 0.00 | 0.00 | 19 | 1015.6 |
| 20260502192020 | 65 | 54 | 2.0 | 2.0 | 0.00 | 0.00 | 0.00 | 20 | 1015.6 |
| 20260502191517 | 65 | 185 | 2.0 | 3.0 | 0.00 | 0.00 | 0.00 | 22 | 1015.6 |
| 20260502191015 | 65 | 227 | 5.0 | 6.0 | 0.00 | 0.00 | 0.00 | 20 | 1016.0 |
| 20260502190512 | 65 | 203 | 3.0 | 4.0 | 0.00 | 0.00 | 0.00 | 21 | 1016.0 |
| 20260502190008 | 64 | 143 | 3.0 | 4.0 | 0.00 | 0.00 | 0.00 | 20 | 1016.0 |
| 20260502185503 | 64 | 162 | 2.0 | 4.0 | 0.00 | 0.00 | 0.00 | 25 | 1016.0 |
| 20260502185001 | 64 | 168 | 5.0 | 7.0 | 0.00 | 0.00 | 0.00 | 22 | 1016.3 |
| 20260502184455 | 63 | 255 | 6.0 | 9.0 | 0.00 | 0.00 | 0.00 | 22 | 1016.7 |
| 20260502183953 | 63 | 248 | 1.0 | 1.0 | 0.00 | 0.00 | 0.00 | 20 | 1016.7 |
| 20260502183449 | 63 | 167 | 5.0 | 6.0 | 0.00 | 0.00 | 0.00 | 23 | 1016.3 |
| 20260502182944 | 63 | 175 | 8.0 | 10.0 | 0.00 | 0.00 | 0.00 | 23 | 1016.7 |
| 20260502182440 | 63 | 242 | 2.0 | 3.0 | 0.00 | 0.00 | 0.00 | 25 | 1017.0 |
| 20260502181936 | 63 | 155 | 4.0 | 6.0 | 0.00 | 0.00 | 0.00 | 24 | 1016.7 |
| 20260502181434 | 64 | 174 | 6.0 | 9.0 | 0.00 | 0.00 | 0.00 | 22 | 1016.7 |
| 20260502180933 | 64 | 104 | 3.0 | 3.0 | 0.00 | 0.00 | 0.00 | 22 | 1016.7 |
| 20260502180430 | 63 | 179 | 2.0 | 4.0 | 0.00 | 0.00 | 0.00 | 22 | 1017.0 |
| 20260502170349 | 61 | 103 | 5.0 | 7.0 | 0.00 | 0.00 | 0.00 | 23 | 1017.8 |
| 20260502164336 | 60 | 191 | 3.0 | 4.0 | 0.00 | 0.00 | 0.00 | 22 | 1018.1 |
| 20260502163832 | 60 | 172 | 2.0 | 3.0 | 0.00 | 0.00 | 0.00 | 24 | 1018.1 |
| 20260502163328 | 60 | 173 | 3.0 | 7.0 | 0.00 | 0.00 | 0.00 | 23 | 1018.1 |
| 20260502162826 | 60 | 83 | 2.0 | 2.0 | 0.00 | 0.00 | 0.00 | 24 | 1018.5 |
| 20260502162322 | 59 | 208 | 5.0 | 6.0 | 0.00 | 0.00 | 0.00 | 24 | 1018.5 |
| 20260502161819 | 59 | 192 | 2.0 | 3.0 | 0.00 | 0.00 | 0.00 | 25 | 1018.5 |
| 20260502161310 | 59 | 193 | 2.0 | 3.0 | 0.00 | 0.00 | 0.00 | 26 | 1018.5 |
| 20260502160808 | 59 | 190 | 6.0 | 9.0 | 0.00 | 0.00 | 0.00 | 27 | 1018.8 |
| 20260502160306 | 60 | 157 | 4.0 | 4.0 | 0.00 | 0.00 | 0.00 | 24 | 1018.5 |
| 20260502152241 | 58 | 234 | 4.0 | 7.0 | 0.00 | 0.00 | 0.00 | 30 | 1019.1 |
| 20260502151739 | 57 | 175 | 3.0 | 4.0 | 0.00 | 0.00 | 0.00 | 32 | 1019.5 |
| 20260502151235 | 56 | 191 | 6.0 | 7.0 | 0.00 | 0.00 | 0.00 | 31 | 1019.5 |
| 20260502150733 | 56 | 148 | 4.0 | 4.0 | 0.00 | 0.00 | 0.00 | 32 | 1019.5 |
| 20260502150229 | 55 | 193 | 1.0 | 2.0 | 0.00 | 0.00 | 0.00 | 34 | 1019.5 |
| 20260502130618 | 36 | 172 | 0.0 | 0.0 | 0.00 | 0.00 | 0.00 | 63 | 1022.3 |
| 20260502130116 | 35 | 178 | 0.0 | 0.0 | 0.00 | 0.00 | 0.00 | 66 | 1022.3 |
| 20260502123601 | 33 | 204 | 0.0 | 0.0 | 0.00 | 0.00 | 0.00 | 71 | 1022.3 |
| 20260502123058 | 32 | 213 | 0.0 | 0.0 | 0.00 | 0.00 | 0.00 | 73 | 1022.3 |
| 20260502122554 | 32 | 212 | 0.0 | 0.0 | 0.00 | 0.00 | 0.00 | 73 | 1022.3 |
| 20260502122052 | 32 | 213 | 0.0 | 0.0 | 0.00 | 0.00 | 0.00 | 74 | 1022.3 |
| 20260502121549 | 32 | 213 | 0.0 | 0.0 | 0.00 | 0.00 | 0.00 | 73 | 1022.3 |
| 20260502121047 | 32 | 217 | 0.0 | 0.0 | 0.00 | 0.00 | 0.00 | 73 | 1022.3 |
| 20260502120542 | 32 | 219 | 0.0 | 0.0 | 0.00 | 0.00 | 0.00 | 73 | 1022.3 |
| 20260502115538 | 31 | 219 | 0.0 | 0.0 | 0.00 | 0.00 | 0.00 | 73 | 1022.3 |
| 20260502115033 | 30 | 219 | 0.0 | 0.0 | 0.00 | 0.00 | 0.00 | 77 | 1022.3 |
| 20260502114524 | 29 | 219 | 0.0 | 0.0 | 0.00 | 0.00 | 0.00 | 78 | 1022.3 |
| 20260502114021 | 29 | 219 | 0.0 | 0.0 | 0.00 | 0.00 | 0.00 | 77 | 1022.3 |
| 20260502113519 | 28 | 219 | 0.0 | 0.0 | 0.00 | 0.00 | 0.00 | 77 | 1022.3 |
| 20260502113017 | 28 | 219 | 0.0 | 0.0 | 0.00 | 0.00 | 0.00 | 76 | 1022.3 |
| 20260502112515 | 28 | 219 | 0.0 | 0.0 | 0.00 | 0.00 | 0.00 | 75 | 1022.3 |
| 20260502112012 | 28 | 219 | 0.0 | 0.0 | 0.00 | 0.00 | 0.00 | 75 | 1022.3 |
| 20260502111509 | 28 | 219 | 0.0 | 0.0 | 0.00 | 0.00 | 0.00 | 75 | 1021.9 |
| 20260502111007 | 28 | 219 | 0.0 | 0.0 | 0.00 | 0.00 | 0.00 | 75 | 1021.9 |
| 20260502110504 | 28 | 219 | 0.0 | 0.0 | 0.00 | 0.00 | 0.00 | 75 | 1021.9 |
| 20260502110002 | 28 | 219 | 0.0 | 0.0 | 0.00 | 0.00 | 0.00 | 75 | 1022.3 |
| 20260502105459 | 28 | 219 | 0.0 | 0.0 | 0.00 | 0.00 | 0.00 | 75 | 1021.9 |
| 20260502104956 | 28 | 219 | 0.0 | 0.0 | 0.00 | 0.00 | 0.00 | 74 | 1022.3 |
| 20260502104453 | 29 | 219 | 0.0 | 0.0 | 0.00 | 0.00 | 0.00 | 74 | 1021.9 |
| 20260502103950 | 29 | 219 | 0.0 | 0.0 | 0.00 | 0.00 | 0.00 | 74 | 1022.3 |
| 20260502103447 | 29 | 219 | 0.0 | 0.0 | 0.00 | 0.00 | 0.00 | 74 | 1021.9 |
| 20260502102939 | 29 | 219 | 0.0 | 0.0 | 0.00 | 0.00 | 0.00 | 74 | 1022.3 |
| 20260502102436 | 29 | 219 | 0.0 | 0.0 | 0.00 | 0.00 | 0.00 | 74 | 1022.3 |
| 20260502101932 | 29 | 219 | 0.0 | 0.0 | 0.00 | 0.00 | 0.00 | 74 | 1022.3 |
| 20260502101431 | 29 | 219 | 0.0 | 0.0 | 0.00 | 0.00 | 0.00 | 73 | 1021.9 |
| 20260502100929 | 29 | 219 | 0.0 | 0.0 | 0.00 | 0.00 | 0.00 | 73 | 1021.9 |
| 20260502100428 | 29 | 219 | 0.0 | 0.0 | 0.00 | 0.00 | 0.00 | 73 | 1022.3 |
| 20260502091403 | 30 | 219 | 0.0 | 0.0 | 0.00 | 0.00 | 0.00 | 71 | 1021.6 |
| 20260502090859 | 30 | 219 | 0.0 | 0.0 | 0.00 | 0.00 | 0.00 | 71 | 1021.9 |
| 20260502090356 | 31 | 219 | 0.0 | 0.0 | 0.00 | 0.00 | 0.00 | 71 | 1021.6 |
| 20260502071250 | 33 | 219 | 0.0 | 0.0 | 0.00 | 0.00 | 0.00 | 65 | 1021.6 |
| 20260502070749 | 33 | 219 | 0.0 | 0.0 | 0.00 | 0.00 | 0.00 | 64 | 1021.6 |
| 20260502070246 | 33 | 219 | 0.0 | 0.0 | 0.00 | 0.00 | 0.00 | 63 | 1021.6 |
| 20260502065745 | 33 | 219 | 0.0 | 0.0 | 0.00 | 0.00 | 0.00 | 62 | 1021.6 |
| 20260502065243 | 33 | 219 | 0.0 | 0.0 | 0.00 | 0.00 | 0.00 | 62 | 1021.6 |
| 20260502064741 | 33 | 219 | 0.0 | 1.0 | 0.00 | 0.00 | 0.00 | 62 | 1021.2 |
| 20260502064238 | 33 | 219 | 0.0 | 0.0 | 0.00 | 0.00 | 0.00 | 62 | 1021.2 |
| 20260502063735 | 34 | 219 | 0.0 | 0.0 | 0.00 | 0.00 | 0.00 | 62 | 1021.2 |
| 20260502063233 | 34 | 219 | 0.0 | 0.0 | 0.00 | 0.00 | 0.00 | 61 | 1021.6 |
| 20260502062730 | 34 | 219 | 0.0 | 0.0 | 0.00 | 0.00 | 0.00 | 61 | 1021.2 |
| 20260502062228 | 34 | 219 | 0.0 | 0.0 | 0.00 | 0.00 | 0.00 | 61 | 1021.6 |
| 20260502061726 | 34 | 219 | 0.0 | 0.0 | 0.00 | 0.00 | 0.00 | 59 | 1021.6 |
| 20260502061224 | 34 | 219 | 0.0 | 0.0 | 0.00 | 0.00 | 0.00 | 60 | 1021.2 |
| 20260502060718 | 34 | 219 | 0.0 | 0.0 | 0.00 | 0.00 | 0.00 | 60 | 1021.2 |
| 20260502060215 | 35 | 219 | 0.0 | 0.0 | 0.00 | 0.00 | 0.00 | 60 | 1021.2 |
| 20260502055713 | 35 | 219 | 0.0 | 0.0 | 0.00 | 0.00 | 0.00 | 59 | 1021.2 |
| 20260502055210 | 35 | 219 | 0.0 | 0.0 | 0.00 | 0.00 | 0.00 | 59 | 1021.2 |
| 20260502054709 | 35 | 219 | 0.0 | 0.0 | 0.00 | 0.00 | 0.00 | 58 | 1021.2 |
| 20260502054206 | 35 | 219 | 0.0 | 0.0 | 0.00 | 0.00 | 0.00 | 57 | 1021.2 |
| 20260502053704 | 36 | 219 | 0.0 | 0.0 | 0.00 | 0.00 | 0.00 | 57 | 1021.2 |
| 20260502053200 | 36 | 219 | 0.0 | 0.0 | 0.00 | 0.00 | 0.00 | 56 | 1020.8 |
| 20260502052659 | 36 | 219 | 0.0 | 0.0 | 0.00 | 0.00 | 0.00 | 56 | 1021.2 |
| 20260502052157 | 37 | 219 | 0.0 | 0.0 | 0.00 | 0.00 | 0.00 | 55 | 1021.2 |
| 20260502051654 | 37 | 219 | 0.0 | 0.0 | 0.00 | 0.00 | 0.00 | 55 | 1020.8 |
| 20260502051152 | 37 | 219 | 0.0 | 0.0 | 0.00 | 0.00 | 0.00 | 55 | 1020.8 |
| 20260502050648 | 37 | 219 | 0.0 | 0.0 | 0.00 | 0.00 | 0.00 | 54 | 1020.8 |
| 20260502050145 | 37 | 219 | 0.0 | 0.0 | 0.00 | 0.00 | 0.00 | 52 | 1020.8 |
| 20260502045642 | 37 | 219 | 0.0 | 0.0 | 0.00 | 0.00 | 0.00 | 53 | 1020.5 |
| 20260502045139 | 37 | 219 | 0.0 | 0.0 | 0.00 | 0.00 | 0.00 | 53 | 1020.5 |
| 20260502044636 | 37 | 219 | 0.0 | 0.0 | 0.00 | 0.00 | 0.00 | 52 | 1020.5 |
| 20260502044132 | 38 | 219 | 0.0 | 0.0 | 0.00 | 0.00 | 0.00 | 51 | 1020.5 |
| 20260502043630 | 38 | 219 | 0.0 | 0.0 | 0.00 | 0.00 | 0.00 | 51 | 1020.5 |
| 20260502043127 | 38 | 219 | 0.0 | 0.0 | 0.00 | 0.00 | 0.00 | 50 | 1020.5 |
| 20260502042626 | 39 | 219 | 0.0 | 0.0 | 0.00 | 0.00 | 0.00 | 49 | 1020.5 |
| 20260502042124 | 39 | 219 | 0.0 | 0.0 | 0.00 | 0.00 | 0.00 | 49 | 1020.5 |
| 20260502041622 | 39 | 219 | 0.0 | 0.0 | 0.00 | 0.00 | 0.00 | 49 | 1020.1 |
| 20260502041119 | 39 | 219 | 0.0 | 0.0 | 0.00 | 0.00 | 0.00 | 49 | 1020.5 |
| 20260502040615 | 40 | 219 | 0.0 | 0.0 | 0.00 | 0.00 | 0.00 | 48 | 1020.5 |
| 20260502040113 | 40 | 219 | 0.0 | 0.0 | 0.00 | 0.00 | 0.00 | 47 | 1020.5 |
| 20260502035609 | 40 | 219 | 0.0 | 0.0 | 0.00 | 0.00 | 0.00 | 47 | 1020.5 |
| 20260502035106 | 41 | 218 | 0.0 | 0.0 | 0.00 | 0.00 | 0.00 | 47 | 1020.1 |
| 20260502034604 | 41 | 218 | 0.0 | 0.0 | 0.00 | 0.00 | 0.00 | 47 | 1020.1 |
| 20260502034102 | 41 | 218 | 0.0 | 0.0 | 0.00 | 0.00 | 0.00 | 45 | 1020.5 |
| 20260502033559 | 42 | 218 | 0.0 | 0.0 | 0.00 | 0.00 | 0.00 | 46 | 1020.1 |
| 20260502033057 | 42 | 219 | 0.0 | 0.0 | 0.00 | 0.00 | 0.00 | 43 | 1020.1 |
| 20260502032552 | 42 | 219 | 0.0 | 0.0 | 0.00 | 0.00 | 0.00 | 43 | 1020.1 |
| 20260502032049 | 43 | 218 | 0.0 | 0.0 | 0.00 | 0.00 | 0.00 | 43 | 1020.1 |
| 20260502031547 | 43 | 219 | 0.0 | 0.0 | 0.00 | 0.00 | 0.00 | 42 | 1020.1 |
| 20260502031045 | 44 | 219 | 0.0 | 0.0 | 0.00 | 0.00 | 0.00 | 43 | 1020.1 |
| 20260502030544 | 44 | 209 | 0.0 | 0.0 | 0.00 | 0.00 | 0.00 | 42 | 1020.1 |
| 20260502030041 | 44 | 200 | 0.0 | 0.0 | 0.00 | 0.00 | 0.00 | 41 | 1019.8 |
| 20260502025538 | 44 | 194 | 0.0 | 0.0 | 0.00 | 0.00 | 0.00 | 40 | 1019.8 |
| 20260502025036 | 45 | 195 | 0.0 | 0.0 | 0.00 | 0.00 | 0.00 | 41 | 1019.8 |
| 20260502024533 | 45 | 248 | 0.0 | 1.0 | 0.00 | 0.00 | 0.00 | 36 | 1019.8 |
| 20260502024032 | 45 | 248 | 1.0 | 1.0 | 0.00 | 0.00 | 0.00 | 36 | 1019.8 |
| 20260502023529 | 45 | 244 | 1.0 | 1.0 | 0.00 | 0.00 | 0.00 | 37 | 1019.8 |
| 20260502023026 | 45 | 244 | 0.0 | 0.0 | 0.00 | 0.00 | 0.00 | 38 | 1019.8 |
| 20260502022522 | 46 | 243 | 0.0 | 0.0 | 0.00 | 0.00 | 0.00 | 37 | 1019.5 |
| 20260502022020 | 46 | 243 | 0.0 | 0.0 | 0.00 | 0.00 | 0.00 | 38 | 1019.5 |
| 20260502021517 | 46 | 254 | 1.0 | 1.0 | 0.00 | 0.00 | 0.00 | 36 | 1019.5 |
| 20260502021014 | 46 | 243 | 1.0 | 1.0 | 0.00 | 0.00 | 0.00 | 34 | 1019.5 |
| 20260502020512 | 46 | 241 | 0.0 | 0.0 | 0.00 | 0.00 | 0.00 | 34 | 1019.5 |
| 20260502020009 | 46 | 241 | 0.0 | 0.0 | 0.00 | 0.00 | 0.00 | 34 | 1019.1 |
| 20260502015507 | 46 | 241 | 0.0 | 0.0 | 0.00 | 0.00 | 0.00 | 34 | 1019.1 |
| 20260502015002 | 47 | 241 | 0.0 | 0.0 | 0.00 | 0.00 | 0.00 | 36 | 1019.5 |
| 20260502014459 | 47 | 214 | 0.0 | 0.0 | 0.00 | 0.00 | 0.00 | 34 | 1019.1 |
| 20260502013956 | 47 | 215 | 0.0 | 1.0 | 0.00 | 0.00 | 0.00 | 34 | 1018.8 |
| 20260502013452 | 48 | 224 | 0.0 | 0.0 | 0.00 | 0.00 | 0.00 | 33 | 1018.8 |
| 20260502012948 | 48 | 224 | 0.0 | 0.0 | 0.00 | 0.00 | 0.00 | 33 | 1018.8 |
| 20260502012446 | 48 | 224 | 0.0 | 0.0 | 0.00 | 0.00 | 0.00 | 33 | 1018.8 |
| 20260502011944 | 49 | 224 | 0.0 | 0.0 | 0.00 | 0.00 | 0.00 | 32 | 1018.8 |
| 20260502011439 | 49 | 224 | 0.0 | 0.0 | 0.00 | 0.00 | 0.00 | 32 | 1018.8 |
| 20260502010936 | 50 | 214 | 0.0 | 0.0 | 0.00 | 0.00 | 0.00 | 33 | 1018.5 |
| 20260502010433 | 50 | 213 | 0.0 | 0.0 | 0.00 | 0.00 | 0.00 | 33 | 1018.5 |
| 20260502005929 | 50 | 211 | 0.0 | 0.0 | 0.00 | 0.00 | 0.00 | 33 | 1018.1 |
| 20260502005427 | 51 | 227 | 0.0 | 1.0 | 0.00 | 0.00 | 0.00 | 33 | 1018.5 |
| 20260502004926 | 51 | 289 | 1.0 | 1.0 | 0.00 | 0.00 | 0.00 | 34 | 1018.1 |
| 20260502004421 | 51 | 228 | 0.0 | 0.0 | 0.00 | 0.00 | 0.00 | 33 | 1018.1 |
| 20260502003918 | 51 | 228 | 0.0 | 1.0 | 0.00 | 0.00 | 0.00 | 36 | 1018.1 |
| 20260502003416 | 51 | 3 | 2.0 | 3.0 | 0.00 | 0.00 | 0.00 | 30 | 1017.8 |
| 20260502002911 | 51 | 346 | 1.0 | 2.0 | 0.00 | 0.00 | 0.00 | 32 | 1018.1 |
| 20260502002409 | 51 | 199 | 0.0 | 0.0 | 0.00 | 0.00 | 0.00 | 29 | 1017.8 |